Showing default

TANSTAAFL-2, 62378

Orbit data source: Space-Track

TANSTAAFL-2, 62378 is a payload satellite owned by True Anomaly (US) in LEO that was launched on Sat, 21 Dec 2024 UTC via an FALCON 9 launch vehicle from the Air Force Western Test Range (AFWTR). Payload-class satellites include a variety of spacecraft equipped with specific instruments for various scientific and technological missions. These include communications satellites like Starlink; space stations such as the ISS; scientific satellites like the Hubble; Earth observation satellites from companies like Planet Labs, Umbra, and HawkEye 360; GPS; miniature CubeSats for education and research; and military/defense satellites.

Loading next visibility...
Identifier
62378, 2024-247B
Orbit
LEO
Country
Flag of USUS
Related business
Manufacturer
True Anomaly
Mission
Operational Commercial Technology
Bus & Motor
JACKAL, Unknown motor
Mass
275 kg wet, 275 kg dry
Launch date (UTC)
2024-12-21 (1 year ago)
Launch vehicle
FALCON 9
Launch site
Air Force Western Test Range (AFWTR)
Object type
Payload
Rocket body
Debris
Shape & HBR
Box + 2 Pan, 2.3 m
Radar Cross Section
1.240 m², Large (>1 m²)

Expand to show TLE details & history
Last TLE update: 14 hours ago

TLE from 14 hours ago
0 TANSTAAFL-2
1 62378U 24247B   26171.28659546  .00007490  00000-0  26475-3 0  9994
2 62378  44.9877 275.6054 0002956 274.1236  85.9310 15.29789660 83430
Epoch: 2026-06-20T06:52Z
TLE epoch observation values (Epoch: 2026-06-20T06:52:41.847Z)
Latitude
-0.00002°
Longitude
-96.07237°
Altitude
476.295 km
Speed
7.629 km/s
True Right ascension
18h 22m 25s
True Declination
0° 00' 00"
Sunlit
Object was in full shadow at epoch
Visualization orbit readout
Latitude
Unknown
Longitude
Unknown
Altitude
Unknown
Speed
Unknown
Apparent Right ascension
Unknown
Apparent Declination
Unknown
Sunlit
N/A
Visualization observer readout
Local Sidereal Time
07:19:52
Azimuth
Unknown
Elevation
Unknown
Doppler factor
Unknown
Orbital elements
Apogee altitude
480.08 km
Perigee altitude
476.027 km
Semi-major axis
6,856.19 km
Eccentricity
0.0003
Inclination
44.9877°
RAAN
275.6054°
Arg. of periapsis
274.1236°
True anomaly
85.96479°
Mean anomaly
85.931°
Eccentric anomaly
85.94789°
Mean motion
3.82313 °/min
Orbital period
94.16 mins
BSTAR
0.00026475
Loading maneuver chart data...
Computing Atmospheric mass density...
Loading historical data...
Loading historical data...
Loading historical data...
Loading historical data...
Loading historical data...
Loading historical data...
Loading historical data...

Documentation

Showing up to 5 results
|